Regional Weather Roundup
Issued by NWS Cleveland, OH

Home | Current Version | Previous Version | Graphics & Text | Print | Product List | Glossary On
Versions: 1 2 3 4 5 6 7 8 9 10 11 12 13 14 15 16 17 18 19 20 21 22 23 24 25 26 27 28 29 30 31 32 33 34 35 36 37 38 39 40 41 42 43 44 45 46 47 48 49 50
000
ASUS41 KCLE 212302
RWRCLE
OHIO REGIONAL WEATHER ROUNDUP
NATIONAL WEATHER SERVICE CLEVELAND, OH
700 PM EDT MON AUG 21 2017

NOTE: "FAIR" INDICATES FEW OR NO CLOUDS BELOW 12,000 FEET WITH NO
SIGNIFICANT WEATHER AND/OR OBSTRUCTIONS TO VISIBILITY.

OHZ001>008-015>018-024>027-034-035-043-044-220000-
   NORTHWEST OHIO

CITY           SKY/WX    TMP DP  RH WIND       PRES   REMARKS
DEFIANCE       MOSUNNY   84  70  62 S9        30.02F
FINDLAY        MOSUNNY   82  70  66 S13       30.04F
TOLEDO EXPRESS SUNNY     84  72  67 SW7       30.00F
TOLEDO EXEC    SUNNY     84  74  71 S12       30.01F HX  91
LIMA           MOSUNNY   81  73  76 S10       30.07F
$$

OHZ009>014-019>023-028>033-038-089-220000-
   NORTHEAST OHIO

CITY           SKY/WX    TMP DP  RH WIND       PRES   REMARKS
CLE-HOPKINS    MOSUNNY   86  70  58 S9        30.06F HX  90
CLE-LAKEFRONT  LGT RAIN  79  71  76 W3        30.04S
CUY CO. ARPT   PTSUNNY   81  68  65 S9        30.06F
LORAIN-ELYRIA  SUNNY     82  69  64 SW8       30.05F
ASHTABULA      PTSUNNY   82  69  64 SE3       30.07F
AKRON-CANTON   PTSUNNY   86  70  58 SW13      30.09F HX  90
WOOSTER        MOSUNNY   83  71  67 SW10G17   30.08F
MANSFIELD      MOSUNNY   83  69  62 SW9       30.09F
YOUNGSTOWN     LGT RAIN  79  71  76 SW5       30.09F
$$

OHZ042-051>053-060>062-070>072-077>081-220000-
  SOUTHWEST OHIO

CITY           SKY/WX    TMP DP  RH WIND       PRES   REMARKS
CINC-COVINGTON CLOUDY    85  70  60 SW3       30.10F
CINC-LUNKEN    CLOUDY    84  72  67 SW7       30.08F
HAMILTON       CLOUDY    85  71  63 SW3       30.09F HX  90
DAYTON         CLOUDY    82  67  60 SW6       30.11F
WRIGHT-PAT AFB CLOUDY    84  67  56 SW5       30.09S
DAYTON GENERAL CLOUDY    86  66  51 W5        30.10F
WILMINGTON     PTSUNNY   82  73  74 S5        30.11S
$$

OHZ036-037-039>041-045>050-054>059-063>069-073>076-082>088-220000-
  CENTRAL AND SOUTHEAST OHIO

CITY           SKY/WX    TMP DP  RH WIND       PRES   REMARKS
COLUMBUS       PTSUNNY   87  69  54 SW8       30.09S HX  91
OSU AIRPORT    CLOUDY    85  70  60 SW12      30.09S
BOLTON FIELD   SUNNY     82  73  74 SW6       30.11S
RICKENBACK AFB MOSUNNY   84  72  65 SW8       30.09S HX  90
NEWARK         SUNNY     84  71  65 SW5       30.09F
MARION         MOSUNNY   82  72  71 VRB5      30.09R
LANCASTER      MOSUNNY   84  72  67 S6        30.11S
ZANESVILLE     SUNNY     84  71  65 S5        30.10F
NEW PHILLY     NOT AVBL
$$




USA.gov is the U.S. government's official web portal to all federal, state and local government web resources and services.